This is the latest recevied weather packets stored in our database for station/object K0PFX-8. If no packets are shown the sender has not sent any weather packets the latest 10 day(s).
| Time | Temp. | Humidity | Pressure | Rain* | Wind** | Luminosity | Snow |
|---|---|---|---|---|---|---|---|
| 1777834223 | 21.67° C | 28% | 1014.1 hPa | 0 mm | 1.79 m/s, 201° | - | - |
| 1777833322 | 21.11° C | 32% | 1014.4 hPa | 0 mm | 4.02 m/s, 245° | - | - |
| 1777832424 | 20.56° C | 32% | 1014.8 hPa | 0 mm | 4.47 m/s, 208° | - | - |
| 1777831523 | 20.56° C | 30% | 1015.4 hPa | 0 mm | 3.58 m/s, 187° | - | - |
| 1777830625 | 19.44° C | 31% | 1016 hPa | 0 mm | 5.81 m/s, 222° | - | - |
| 1777829723 | 18.89° C | 31% | 1016.5 hPa | 0 mm | 4.02 m/s, 266° | - | - |
| 1777828825 | 18.89° C | 34% | 1017 hPa | 0 mm | 4.47 m/s, 191° | - | - |
| 1777827925 | 18.33° C | 34% | 1017.5 hPa | 0 mm | 3.58 m/s, 211° | - | - |
| 1777827026 | 17.78° C | 35% | 1017.7 hPa | 0 mm | 4.47 m/s, 184° | - | - |
| 1777826125 | 17.22° C | 38% | 1017.8 hPa | 0 mm | 5.81 m/s, 231° | - | - |
| 1777825226 | 16.67° C | 38% | 1018 hPa | 0 mm | 6.71 m/s, 193° | - | - |
| 1777824325 | 16.11° C | 44% | 1018.4 hPa | 0 mm | 3.13 m/s, 252° | - | - |
| 1777823427 | 15.56° C | 46% | 1018.6 hPa | 0 mm | 4.02 m/s, 225° | - | - |
| 1777822526 | 15.56° C | 48% | 1018.9 hPa | 0 mm | 3.58 m/s, 232° | - | - |
| 1777821627 | 14.44° C | 47% | 1019.3 hPa | 0 mm | 5.36 m/s, 250° | - | - |
| 1777820727 | 14.44° C | 47% | 1019.4 hPa | 0 mm | 4.02 m/s, 201° | - | - |
| 1777819828 | 13.89° C | 49% | 1019.8 hPa | 0 mm | 2.68 m/s, 221° | - | - |
| 1777818927 | 13.33° C | 51% | 1020.1 hPa | 0 mm | 2.24 m/s, 246° | - | - |
| 1777818029 | 12.78° C | 54% | 1020.1 hPa | 0 mm | 3.13 m/s, 215° | - | - |
| 1777817128 | 12.22° C | 55% | 1020.3 hPa | 0 mm | 3.58 m/s, 222° | - | - |
| 1777816230 | 12.22° C | 57% | 1020.4 hPa | 0 mm | 3.13 m/s, 229° | - | - |
| 1777815329 | 11.67° C | 60% | 1020.4 hPa | 0 mm | 2.68 m/s, 191° | - | - |
| 1777814431 | 11.11° C | 62% | 1020.6 hPa | 0 mm | 3.13 m/s, 235° | - | - |
| 1777813531 | 10.56° C | 65% | 1020.5 hPa | 0 mm | 2.24 m/s, 190° | - | - |
| 1777812632 | 10° C | 67% | 1020.7 hPa | 0 mm | 3.58 m/s, 281° | - | - |
* Rain latest hour (hover to see other rain measurements)
** Current wind speed in m/s (hover to see current wind gust speed)